Location: Monrovia
(34.7865°N, 86.7139°W)
Time: 00:43:17
(UTC+00:00)

Cosmos 1605 Rocket - Pass Details

Date: 14 July 2020
Orbit: 944 x 1006 km, 82.9° (Epoch: 12 August)

Event Time Altitude Azimuth Distance (km) Brightness Sun altitude
Exits shadow 06:25:58 62° 331° (NNW) 1,107 4.3 -33.1°
Drops below altitude 10° 06:31:16 10° 2° (N) 2,735 7.2 -32.9°
Sets 06:33:48 0° 4° (N) 3,676 8.1 -32.8°
